sat.trackr.live / text

‹ back to catalog

STARLINK-30545

NORAD 58000 · 2023-153K

PAYLOAD ACTIVE UNKNOWN

§ Identity

Operator
Country
US
Launch date
2023-10-05
Launch site
AFETR
Launch vehicle
Mass (kg)
RCS (m²)

Purposes: comms

External: N2YO · Heavens-Above · Gunter

§ Orbital elements

Epoch: 2026-09-20T16:31:39.951840Z

Period
94.27 min
Inclination
43.0011°
Eccentricity
0.0001421
Mean motion
15.27576723 rev/d
Perigee alt
482.1 km
Apogee alt
484.0 km
Semi-major
6,861.2 km
B*
-6.3220e-6
RAAN
45.3982°
Arg perigee
274.5451°
Mean anomaly
85.5238°
Rev number
16,472

§ Raw data

STARLINK-305451 58000U 23153K   26263.68865685 -.00000436  00000+0 -63220-5 0  99902 58000  43.0011  45.3982 0001421 274.5451  85.5238 15.27576723164727

JSON: /api/v1/satellites/58000 · /tle

For live sub-satellite position, see the globe view (requires WebGL).

§ Visibility from observer

Set your observer location to see the next 7 days of passes ≥ 10°. The values pass through the URL so the page stays shareable.

No JS? Fill the form by hand. The geolocation button needs JavaScript.